Weather History for Sivas, Turkey

Change the Weather History Date:

Wednesday, October 2, 2013

  Actual Average Record
Temperature  
Mean Temperature 56 °F -  
Max Temperature 63 °F 63 °F - ()
Min Temperature 48 °F 39 °F - ()
Degree Days  
Heating Degree Days 10    
Growing Degree Days 6 (Base 50)    
Moisture  
Dew Point 43 °F    
Average Humidity 69    
Maximum Humidity 93    
Minimum Humidity 32    
Precipitation  
Precipitation 0.12 in 0.04 in - ()
Sea Level Pressure  
Sea Level Pressure 29.87 in    
Wind  
Wind Speed 12 mph ()    
Max Wind Speed 21 mph    
Max Gust Speed -    
Visibility 6.5 miles    
Events Rain    
T = Trace of Precipitation, MM = Missing Value Source: Averaged Metar Reports

Daily Weather History Graph

Daily Weather History Graph

Search for Another Location

Airport:

Trip Planner

Search our weather history database for the weather conditions in past years. The results will help you decide how hot, cold, wet, or windy it might be!

Date:

Astronomy

Oct. 02, 2013 Rise Set
Actual Time 6:29 AM EEST 6:13 PM EEST
Civil Twilight 6:02 AM EEST 6:40 PM EEST
Nautical Twilight 5:31 AM EEST 7:11 PM EEST
Astronomical Twilight 4:59 AM EEST 7:42 PM EEST
Moon 3:42 AM EEST (10/2) 4:37 PM EEST (10/2)
Length of Visible Light 12h 37m
Length of Day
11h 43m
Waning Crescent, 8% of the Moon is Illuminated
Oct 2
Waning Crescent
Oct 5
New
Oct 12
First Quarter
Oct 19
Full
Oct 27
Last Quarter

Hourly Weather History & Observations

Time (EEST) Temp. Dew Point Humidity Pressure Visibility Wind Dir Wind Speed Gust Speed Precip Events Conditions
3:50 AM 53.6 °F 39.2 °F 58% 29.83 in 6.2 mi South 13.8 mph - N/A   Mostly Cloudy
4:50 AM 53.6 °F 37.4 °F 54% 29.83 in 6.2 mi South 13.8 mph - N/A   Mostly Cloudy
5:50 AM 53.6 °F 35.6 °F 51% 29.86 in 6.2 mi South 11.5 mph - N/A   Mostly Cloudy
6:50 AM 53.6 °F 37.4 °F 54% 29.86 in 6.2 mi South 10.4 mph - N/A   Mostly Cloudy
7:50 AM 53.6 °F 37.4 °F 54% 29.86 in 6.2 mi South 10.4 mph - N/A   Mostly Cloudy
8:50 AM 55.4 °F 39.2 °F 54% 29.86 in 6.2 mi South 16.1 mph - N/A   Mostly Cloudy
9:00 AM 62 °F 40 °F 32%  in 9 mi SSW 3.5 mph - -   Partly Cloudy
9:50 AM 57.2 °F 41.0 °F 55% 29.89 in 6.2 mi South 20.7 mph - N/A   Mostly Cloudy
10:28 AM 53.6 °F 44.6 °F 72% 29.89 in 6.2 mi SW 17.3 mph - N/A Rain Light Rain Showers
10:50 AM 51.8 °F 46.4 °F 82% 29.89 in 6.2 mi SSW 18.4 mph - N/A Rain Light Rain Showers
11:30 AM 53.6 °F 44.6 °F 72% 29.86 in 6.2 mi SW 18.4 mph - N/A   Mostly Cloudy
11:50 AM 51.8 °F 44.6 °F 76% 29.89 in 6.2 mi WSW 20.7 mph - N/A   Mostly Cloudy
1:50 PM 55.4 °F 46.4 °F 72% 29.86 in 6.2 mi SSW 18.4 mph - N/A   Mostly Cloudy
2:50 PM 59.0 °F 44.6 °F 59% 29.86 in 6.2 mi South 16.1 mph - N/A   Mostly Cloudy
3:00 PM 59 °F 50 °F 63%  in 9 mi SSE 4.6 mph - -   Partly Cloudy
3:50 PM 55.4 °F 44.6 °F 67% 29.86 in 6.2 mi South 18.4 mph - N/A   Mostly Cloudy
4:50 PM 57.2 °F 42.8 °F 59% 29.83 in 6.2 mi SSE 16.1 mph - N/A   Mostly Cloudy
5:50 PM 57.2 °F 44.6 °F 63% 29.86 in 6.2 mi SSW 15.0 mph - N/A   Mostly Cloudy
6:50 PM 53.6 °F 44.6 °F 72% 29.89 in 6.2 mi WSW 15.0 mph - N/A Rain Light Rain Showers
7:50 PM 50.0 °F 46.4 °F 87% 29.89 in 6.2 mi SSW 10.4 mph - N/A Rain Light Rain Showers
8:50 PM 48.2 °F 46.4 °F 93% 29.89 in 6.2 mi SW 8.1 mph - N/A Rain Light Rain Showers
9:00 PM 53 °F 48 °F 78%  in 9 mi Calm Calm - - Rain Light Rain Showers
9:11 PM 48.2 °F 44.6 °F 87% 29.89 in 6.2 mi SW 11.5 mph - N/A   Mostly Cloudy
9:50 PM 48.2 °F 46.4 °F 93% 29.89 in 6.2 mi SSW 11.5 mph - N/A   Mostly Cloudy
10:50 PM 48.2 °F 46.4 °F 93% 29.89 in 6.2 mi SSE 8.1 mph - N/A Rain Light Rain Showers
11:50 PM 48.2 °F 46.4 °F 93% 29.89 in 6.2 mi South 5.8 mph - N/A Rain Light Rain Showers